Tracking 19476 objects as of 17-Jan-2019
HD Live streaming from Space Station
objects crossing your sky now

MOLNIYA 1-53

Track MOLNIYA 1-53 now!
MOLNIYA 1-53 is classified as:


NORAD ID: 13070
Int'l Code: 1982-015A
Perigee: 295.0 km
Apogee: 40,078.5 km
Inclination: 62.5 °
Period: 717.9 minutes
Semi major axis: 26557 km
RCS: 15.1776 m2 (large)
Launch date: February 26, 1982
Source: Commonwealth of Independent States (former USSR) (CIS)
Launch site: PLESETSK MISSILE AND SPACE COMPLEX (PKMTR)
aabbcc
Your satellite tracking list
Your tracking list is empty




NASA's NSSDC Master Catalog

Two Line Element Set (TLE):
1 13070U 82015A   19016.12170818  .00000060  00000-0  31534-3 0  9997
2 13070  62.4876  49.5075 7490005 268.8867  13.3845  2.00593374270204
Source of the keplerian elements: AFSPC